Wind_Speed
4 4 5 5 6 7 8 9 10 11 12 12 14 16 18 18 18 18 18 18 17 17 18 18 19 20 21 22 22 23 25 26 27 29 29 30 32 32 33 33 32 32
1 1 2 4 5 6 8 9 10 11 12 12 13 15 17 18 17 18 18 18 17 17 17 18 19 19 20 21 21 23 24 25 26 27 28 30 31 31 32 32 32 32
6 5 4 4 5 6 8 9 9 10 10 11 11 13 14 15 15 15 16 17 17 17 17 18 19 19 19 20 20 22 23 24 25 26 28 30 30 31 32 31 32 33
9 8 6 5 4 5 6 6 6 7 8 9 9 10 11 11 11 11 12 13 14 15 16 18 19 19 19 20 20 22 23 24 25 25 27 29 30 31 32 31 32 32
12 11 9 8 6 4 3 3 3 3 4 5 6 6 7 8 8 8 8 9 11 13 15 17 18 19 19 20 21 22 24 25 26 26 27 29 29 30 30 30 31 32
14 13 12 11 10 8 7 7 6 5 4 4 3 4 5 5 6 6 7 8 9 10 12 15 17 18 18 19 21 22 24 25 26 26 27 29 29 29 30 30 31 32
14 13 12 11 10 9 9 8 7 6 6 5 4 5 5 5 5 5 6 6 7 8 10 12 14 15 16 18 20 21 23 24 25 26 27 29 29 30 30 30 31 32
15 13 13 11 10 10 10 9 8 7 7 6 5 6 6 6 6 6 6 6 6 7 7 8 10 12 13 15 18 20 22 24 25 26 28 29 29 30 30 30 32 33
14 14 13 12 12 12 11 10 10 9 8 8 7 7 7 7 7 7 7 6 6 6 6 7 7 8 9 11 14 17 20 22 24 26 27 29 30 30 30 30 31 32
14 14 13 13 14 13 13 12 12 11 11 10 10 10 9 9 8 8 7 7 7 7 7 7 7 7 8 9 10 12 15 18 20 23 25 27 29 29 29 30 31 32
15 15 14 15 15 14 14 13 13 13 12 12 12 12 12 11 10 10 9 9 9 9 9 8 8 8 8 9 9 10 12 14 16 18 21 24 26 27 28 28 29 30
15 15 15 15 14 14 14 13 13 12 12 12 12 12 12 11 11 11 11 10 10 10 10 10 9 9 9 10 10 10 11 13 14 16 18 20 22 24 25 26 27 28
15 15 14 14 14 13 13 13 12 12 12 12 12 11 12 12 12 12 12 11 10 10 10 10 10 9 10 10 10 11 12 13 15 16 17 18 19 20 21 22 25 26
13 13 13 13 13 13 13 13 13 12 12 12 12 11 11 12 13 13 13 12 12 11 11 10 10 9 10 11 11 12 13 15 16 17 19 19 20 20 20 20 22 23
12 12 12 13 13 13 13 13 13 13 13 12 12 11 11 11 12 13 14 14 14 14 13 12 12 11 11 11 12 14 16 17 18 18 19 21 21 22 22 21 22 22
12 12 12 12 12 12 13 13 13 13 13 13 12 11 10 10 11 12 15 16 15 15 15 14 14 14 12 12 14 15 16 17 18 18 18 19 21 21 21 21 21 22
12 12 12 12 12 12 12 13 12 12 13 13 12 11 10 9 9 11 15 17 14 13 14 14 15 15 14 14 15 15 16 16 17 18 18 18 19 19 20 20 20 20
11 11 11 11 12 12 12 13 12 13 13 13 13 12 11 10 9 12 17 17 13 12 13 13 15 16 15 15 16 15 15 16 17 18 18 18 18 19 19 20 20 20
10 11 11 11 12 12 12 13 13 14 14 14 14 13 12 10 10 14 18 17 14 13 13 15 17 17 15 15 16 15 16 17 17 17 17 17 17 18 19 20 20 21
10 11 11 11 12 12 13 14 14 14 15 15 14 13 12 11 12 17 19 17 14 14 15 17 18 17 16 15 16 16 17 17 17 16 17 17 17 17 18 19 19 20
10 11 12 12 13 14 14 15 15 16 16 15 15 14 11 10 14 18 19 18 15 15 16 18 18 17 16 16 16 17 17 17 17 17 17 17 17 17 17 18 18 19
11 12 12 13 14 14 14 15 15 16 16 16 16 15 12 12 16 18 19 18 17 17 18 19 18 17 16 16 17 17 18 18 18 19 19 19 18 18 17 17 17 17
11 12 13 13 14 14 14 14 15 15 15 15 16 15 13 14 18 19 18 18 17 17 18 19 19 18 17 17 17 17 17 18 18 20 20 20 20 19 17 17 17 16
12 12 13 14 14 14 14 15 15 16 15 14 14 14 14 16 18 19 19 18 17 17 17 19 20 19 17 17 16 16 16 17 18 20 21 21 21 20 19 18 17 16
14 14 14 14 15 15 15 15 16 16 15 15 15 15 16 17 18 19 19 19 18 17 17 18 20 19 17 16 16 15 16 16 18 19 20 21 21 21 21 19 17 17
16 15 15 15 16 16 16 16 16 16 16 16 16 16 17 18 18 18 20 19 18 18 17 18 19 19 17 15 15 15 15 16 17 19 20 21 21 20 21 21 20 20
Wind_Direction
236 255 269 279 287 293 297 298 298 298 297 295 292 290 289 289 290 286 282 279 275 273 272 269 265 261 258 255 251 249 247 245 242 241 240 240 241 241 241 241 239 238
69 6 332 323 314 312 314 312 314 314 310 307 303 299 295 293 292 289 286 283 278 277 275 270 267 264 260 257 253 250 248 246 244 243 241 241 242 242 243 243 242 242
63 49 27 358 337 326 322 320 320 317 313 312 309 304 300 300 300 296 291 286 281 279 276 271 268 265 261 259 255 251 250 249 249 248 246 245 244 244 245 245 245 244
61 53 43 26 360 336 322 317 315 309 305 303 299 294 293 295 298 298 296 292 286 283 279 274 270 267 263 260 256 254 253 252 253 252 250 248 247 247 247 247 246 246
69 68 66 64 60 47 25 14 3 346 331 314 303 297 294 293 291 289 294 295 291 288 282 276 273 269 266 262 257 256 255 254 255 253 250 249 250 249 248 247 246 246
75 75 74 73 74 73 69 65 56 44 38 22 356 341 327 316 304 294 290 287 286 287 284 279 276 272 270 267 262 259 258 258 258 256 251 250 251 250 249 247 246 246
71 71 72 70 69 69 65 60 53 44 40 32 15 7 358 347 337 326 312 298 287 282 280 279 279 278 276 272 267 264 262 261 261 258 254 252 251 250 249 247 248 248
67 66 66 65 63 61 56 51 44 36 31 21 12 10 2 354 350 343 335 323 307 291 281 277 277 279 279 276 271 268 266 264 262 260 258 256 254 252 252 252 252 252
62 60 58 56 54 50 45 41 37 33 29 23 20 17 10 7 1 352 344 336 324 311 300 290 283 279 278 277 276 273 271 269 267 264 262 261 259 258 259 259 258 257
55 52 50 47 45 40 36 32 28 28 25 23 21 17 15 15 11 5 359 352 345 338 330 320 309 298 289 284 282 282 280 278 276 273 270 268 267 266 266 265 263 263
49 46 43 41 37 33 31 28 25 24 20 17 15 12 10 7 4 2 360 358 357 352 345 340 332 324 315 305 297 292 289 286 284 282 279 278 276 275 273 271 269 268
43 40 37 35 31 28 27 24 22 20 17 14 11 8 7 3 1 1 357 356 354 349 345 339 334 331 326 320 313 305 301 296 293 290 287 286 284 282 281 278 276 275
40 37 34 32 28 24 23 20 19 18 17 15 12 12 11 7 3 1 360 360 354 348 345 337 332 331 326 322 318 313 311 308 306 304 301 297 295 292 290 286 283 281
38 35 33 29 25 21 19 17 17 17 17 16 13 14 16 11 5 0 359 0 357 353 350 344 340 338 330 325 326 326 326 322 319 316 313 310 308 305 302 298 294 290
36 32 29 25 21 18 16 14 14 15 15 14 11 13 16 11 4 3 1 358 356 355 354 353 351 346 341 342 342 339 334 327 323 320 317 315 312 310 308 305 302 299
30 27 24 22 19 16 14 12 11 12 13 12 10 12 14 9 4 3 2 358 355 353 354 356 353 348 351 352 345 338 333 328 324 321 318 317 315 313 311 309 307 304
24 21 19 17 15 14 12 9 7 7 8 7 9 10 10 8 1 353 354 359 358 352 352 352 346 346 351 345 338 336 333 329 325 321 319 316 314 314 313 312 312 309
15 12 11 10 8 7 5 3 0 0 2 0 1 4 6 5 351 338 346 357 360 353 348 344 342 345 345 338 335 335 333 328 324 321 319 316 312 311 310 310 310 309
6 2 2 1 359 358 356 355 354 353 355 355 352 354 359 356 336 329 340 350 354 349 341 337 341 345 340 334 334 334 332 329 324 321 319 316 313 311 309 307 307 306
355 353 354 352 351 351 350 349 350 348 348 348 344 344 351 345 324 324 335 343 345 340 333 331 337 341 336 332 332 332 331 330 324 321 319 315 313 311 309 308 307 307
345 344 347 347 346 347 346 345 345 343 343 343 338 339 344 330 316 321 331 336 335 331 326 326 331 336 333 329 329 329 330 329 324 322 320 316 313 310 308 307 306 306
339 339 341 342 341 341 341 340 340 338 339 338 332 331 333 317 312 321 328 329 326 323 321 322 326 330 330 326 326 326 326 325 323 322 321 317 314 312 309 307 306 305
333 334 334 335 335 336 335 335 334 332 333 333 328 326 322 312 313 319 322 322 319 316 317 318 320 324 326 323 323 324 323 321 320 320 320 318 316 315 312 309 307 304
323 325 327 327 329 331 331 330 329 328 328 329 325 318 310 308 312 315 316 317 316 312 313 313 314 318 322 321 320 321 320 318 317 318 318 317 317 317 314 311 308 306
313 316 319 322 323 326 327 325 324 324 323 322 320 314 310 310 313 314 313 314 314 313 312 310 311 315 319 320 319 318 316 315 316 316 315 315 316 316 315 313 311 309
307 310 313 316 317 319 320 320 319 318 318 317 316 315 314 313 313 313 311 311 310 311 309 308 310 313 316 319 318 315 314 313 313 313 311 310 311 311 310 310 310 309
Height
741 743 745 747 748 749 750 751 751 752 752 753 754 756 758 758 758 759 759 758 758 758 758 759 760 761 761 761 762 763 764 765 766 767 768 769 770 771 772 773 774 775
741 742 743 745 746 747 749 749 750 751 752 752 753 755 757 757 757 757 757 757 756 756 756 757 758 758 759 759 760 760 761 762 763 764 765 765 767 767 768 769 771 771
740 741 741 743 745 746 747 748 749 750 751 752 752 754 755 755 755 755 756 756 755 754 755 755 756 756 756 756 757 758 758 759 760 761 762 762 763 764 765 766 767 768
740 740 741 742 743 745 746 747 748 749 750 750 751 753 753 753 753 753 754 753 753 753 753 754 754 754 754 753 754 755 755 756 757 758 759 759 760 761 761 763 763 764
740 740 741 742 743 744 745 746 747 748 749 749 750 751 751 751 751 751 751 751 751 751 751 752 753 752 752 751 751 751 752 753 754 755 755 755 757 757 758 759 759 760
741 742 742 743 743 744 745 746 747 747 748 749 749 749 749 749 749 749 749 748 748 749 750 751 751 751 750 749 749 749 749 750 751 752 752 752 753 754 755 756 756 756
742 743 743 744 744 745 745 746 747 748 749 749 748 748 748 748 748 747 747 747 747 747 748 749 749 749 748 747 747 747 747 748 749 749 749 749 750 751 752 753 752 752
743 744 744 745 745 746 746 747 748 748 748 748 748 748 748 747 747 746 746 746 746 746 746 747 746 746 746 745 745 745 745 746 746 747 747 747 747 747 748 749 749 748
744 745 745 745 746 746 747 748 748 748 748 748 748 748 747 746 746 745 746 746 746 746 745 744 744 743 743 743 743 743 743 744 744 744 744 744 744 744 745 746 746 745
745 746 746 746 747 747 748 748 748 748 748 747 747 747 746 746 745 745 745 745 745 744 744 743 742 742 741 741 741 741 741 741 742 742 742 742 742 742 742 743 743 742
747 747 747 747 748 748 748 748 748 747 747 746 746 746 745 745 745 745 744 744 743 743 742 742 741 740 740 739 739 739 739 739 739 739 739 739 739 739 740 740 740 739
747 747 748 748 749 749 749 748 748 747 746 746 745 745 745 745 744 744 743 743 742 742 741 741 740 739 739 738 738 737 737 737 737 737 737 737 737 737 737 737 737 737
748 748 749 749 749 749 749 748 748 747 746 745 745 744 744 744 743 743 743 742 741 741 740 739 739 738 737 737 736 736 735 735 735 735 734 734 734 734 735 735 735 735
749 749 749 749 749 749 749 749 748 747 747 746 745 744 744 743 743 742 741 741 740 739 739 738 737 737 736 735 734 734 734 733 733 732 732 732 732 732 732 732 732 732
750 749 749 749 749 749 749 749 749 748 747 746 745 744 743 742 742 741 740 740 739 738 738 737 736 735 734 734 733 733 732 732 731 730 730 729 729 729 729 729 729 729
750 749 749 749 749 749 750 749 749 748 747 746 745 744 743 742 742 741 740 739 738 737 736 736 735 734 733 733 733 733 732 731 730 729 728 728 727 727 726 726 726 726
750 750 750 750 750 750 749 749 749 748 747 746 745 744 743 742 741 740 739 738 738 737 736 735 734 733 732 732 732 732 731 730 728 728 727 727 726 725 725 724 724 723
752 752 751 751 750 749 749 748 748 747 746 745 744 743 742 742 741 740 738 737 737 736 735 734 733 732 731 731 731 730 729 728 727 726 726 725 725 724 723 723 722 721
753 753 752 751 750 749 748 747 746 745 744 744 743 742 741 740 740 738 737 736 736 735 734 733 732 731 730 730 730 729 728 727 726 725 724 724 723 723 722 721 720 720
753 752 752 751 750 749 747 746 744 743 743 742 742 741 740 739 738 737 736 735 734 734 732 731 731 730 729 729 728 727 726 725 724 723 722 722 721 721 720 719 719 718
752 751 751 749 748 747 745 744 743 742 742 741 741 740 739 738 737 736 734 734 733 732 731 730 729 729 728 727 726 725 725 723 722 721 720 720 719 719 718 717 717 716
751 749 748 747 747 746 745 743 742 741 741 740 739 738 738 737 736 734 733 732 731 731 729 728 727 727 726 725 724 724 723 721 720 719 718 717 716 716 716 715 714 714
749 748 747 747 746 745 744 743 742 741 740 739 738 737 736 735 734 733 732 731 730 729 728 726 725 725 725 723 722 722 721 720 718 717 716 714 713 713 713 712 712 711
748 747 746 746 745 744 743 741 740 740 739 738 737 736 735 734 733 732 731 729 728 727 726 725 724 723 723 721 721 720 719 718 716 715 714 712 711 710 710 709 709 708
747 746 745 744 743 742 741 740 739 738 737 737 736 735 734 732 731 730 728 727 726 725 724 724 722 721 721 720 719 718 718 716 715 713 712 710 709 708 707 706 706 705
745 744 743 742 741 740 739 738 737 737 736 735 734 733 731 730 729 728 726 725 724 723 722 722 721 720 719 718 717 716 716 715 713 712 710 709 707 706 704 703 703 702